Location: *
(50.9167°S, 179.4000°W)
Time: 21:16:00
(UTC+00:00)

NOSS 3-4 (C) - Pass Details

Date: 03 March 2024
Orbit: 809 x 1402 km, 63.4° (Epoch: 05 March)

Event Time Altitude Azimuth Distance (km) Brightness Sun altitude
Exits shadow 12:16:11 67° 292° (WNW) 1,447 4.1 -32.5°
Maximum altitude 12:17:26 81° 224° (SW) 1,357 4.1 -32.5°
Drops below altitude 10° 12:25:22 10° 136° (SE) 3,197 6.7 -32.5°
Sets 12:28:00 0° 134° (SE) 4,086 7.4 -32.4°
